This is the latest recevied weather packets stored in our database for station/object KE8GJZ-1. If no packets are shown the sender has not sent any weather packets the latest 10 day(s).
| Time | Temp. | Humidity | Pressure | Rain* | Wind** | Luminosity | Snow |
|---|---|---|---|---|---|---|---|
| 1778057234 | 7.22° C | 67% | 1007 hPa | 0 mm | - | 0 W/m² | - |
| 1778056930 | 7.22° C | 66% | 1007 hPa | 0 mm | - | 0 W/m² | - |
| 1778056628 | 7.22° C | 66% | 1007 hPa | 0 mm | - | 0 W/m² | - |
| 1778056325 | 7.22° C | 66% | 1007.1 hPa | 0 mm | - | 0 W/m² | - |
| 1778056023 | 7.22° C | 66% | 1007.3 hPa | 0 mm | - | 0 W/m² | - |
| 1778055723 | 7.22° C | 69% | 1007 hPa | 0 mm | - | 0 W/m² | - |
| 1778055421 | 7.22° C | 68% | 1007.1 hPa | 0 mm | - | 0 W/m² | - |
| 1778055118 | 7.22° C | 69% | 1007.1 hPa | 0 mm | - | 0 W/m² | - |
| 1778054816 | 7.22° C | 68% | 1007.2 hPa | 0 mm | - | 0 W/m² | - |
| 1778054512 | 7.22° C | 70% | 1007 hPa | 0 mm | - | 0 W/m² | - |
| 1778054210 | 7.22° C | 69% | 1007.3 hPa | 0 mm | - | 0 W/m² | - |
| 1778053906 | 7.22° C | 69% | 1006.8 hPa | 0 mm | - | 0 W/m² | - |
| 1778053605 | 7.22° C | 69% | 1007.4 hPa | 0 mm | - | 0 W/m² | - |
| 1778053301 | 7.22° C | 70% | 1007.2 hPa | 0 mm | - | 0 W/m² | - |
| 1778052999 | 7.22° C | 70% | 1007.4 hPa | 0 mm | - | 0 W/m² | - |
| 1778052696 | 7.22° C | 69% | 1007.4 hPa | 0 mm | - | 0 W/m² | - |
| 1778052393 | 7.22° C | 69% | 1007.2 hPa | 0 mm | - | 0 W/m² | - |
| 1778052091 | 7.22° C | 69% | 1007.3 hPa | 0 mm | - | 0 W/m² | - |
| 1778051788 | 7.78° C | 69% | 1007 hPa | 0 mm | - | 0 W/m² | - |
| 1778051486 | 7.78° C | 69% | 1007 hPa | 0 mm | - | 0 W/m² | - |
| 1778051183 | 7.78° C | 67% | 1007.2 hPa | 0 mm | - | 0 W/m² | - |
| 1778050880 | 7.78° C | 67% | 1007.1 hPa | 0 mm | - | 0 W/m² | - |
| 1778050578 | 7.78° C | 67% | 1006.8 hPa | 0 mm | - | 0 W/m² | - |
| 1778050274 | 7.78° C | 68% | 1007.2 hPa | 0 mm | - | 0 W/m² | - |
| 1778049971 | 7.78° C | 68% | 1007.1 hPa | 0 mm | - | 0 W/m² | - |
* Rain latest hour (hover to see other rain measurements)
** Current wind speed in m/s (hover to see current wind gust speed)